When you browse on this site, cookies collect data to enhance your experience and personalize the content and advertising you see.
Visit our Privacy Policy to learn more. By continuing to use the site, you agree to this use of cookies and data.
  • In United Kingdom
  • List of Countries
  • For 7 days
  • Water Temperature
  • Satellite Maps
  • Weather Map
  • Weather Widgets
  • user-avatar
    Login

    Hourly Weather Cuilapa

    Today, 20 May, Monday

    Time Temperature Precipitation Wind Pressure Humidity
    00:00 +23°C° 0 mm 1 mps 685 mmHg 89%
    01:00 +23°C° 0.3 mm 1 mps 684 mmHg 89%
    02:00 +22°C° 0.3 mm 1 mps 684 mmHg 88%
    03:00 +22°C° 0.3 mm 1 mps 684 mmHg 88%
    04:00 +22°C° 0 mm 1 mps 684 mmHg 88%
    05:00 +22°C° 0 mm 1 mps 684 mmHg 87%
    06:00 +22°C° 0 mm 1 mps 685 mmHg 87%
    07:00 +24°C° 0 mm 1 mps 685 mmHg 80%
    08:00 +26°C° 0 mm 1 mps 685 mmHg 73%
    09:00 +28°C° 0 mm 1 mps 686 mmHg 66%
    10:00 +29°C° 1.1 mm 1 mps 686 mmHg 65%
    11:00 +30°C° 1.1 mm 1 mps 686 mmHg 64%
    12:00 +30°C° 1.1 mm 1 mps 686 mmHg 64%
    13:00 +30°C° 2.3 mm 1 mps 685 mmHg 67%
    14:00 +29°C° 2.3 mm 2 mps 685 mmHg 71%
    15:00 +28°C° 2.3 mm 2 mps 684 mmHg 74%
    16:00 +27°C° 2.3 mm 1 mps 684 mmHg 79%
    17:00 +26°C° 2.3 mm 1 mps 684 mmHg 84%
    18:00 +25°C° 2.3 mm 1 mps 683 mmHg 89%
    19:00 +25°C° 2.4 mm 1 mps 684 mmHg 89%
    20:00 +22°C° 2.4 mm 0 mps 684 mmHg 90%
    21:00 +22°C° 2.4 mm 0 mps 685 mmHg 91%
    22:00 +22°C° 1.9 mm 0 mps 685 mmHg 91%
    23:00 +21°C° 1.9 mm 0 mps 685 mmHg 91%

    Tomorrow, 21 May, Tuesday

    Time Temperature Precipitation Wind Pressure Humidity
    00:00 +21°C° 1.9 mm 0 mps 685 mmHg 91%
    01:00 +21°C° 0.4 mm 0 mps 684 mmHg 91%
    02:00 +23°C° 0.4 mm 1 mps 684 mmHg 91%
    03:00 +22°C° 0.4 mm 1 mps 683 mmHg 91%
    04:00 +22°C° 0 mm 1 mps 683 mmHg 91%
    05:00 +22°C° 0 mm 1 mps 684 mmHg 90%
    06:00 +22°C° 0 mm 1 mps 684 mmHg 90%
    07:00 +24°C° 0 mm 1 mps 684 mmHg 84%
    08:00 +26°C° 0 mm 1 mps 685 mmHg 77%
    09:00 +26°C° 0 mm 0 mps 685 mmHg 71%
    10:00 +28°C° 0.9 mm 1 mps 685 mmHg 71%
    11:00 +28°C° 0.9 mm 1 mps 685 mmHg 71%
    12:00 +29°C° 0.9 mm 2 mps 685 mmHg 72%
    13:00 +28°C° 2.1 mm 2 mps 684 mmHg 75%
    14:00 +28°C° 2.1 mm 2 mps 683 mmHg 78%
    15:00 +27°C° 2.1 mm 2 mps 683 mmHg 81%
    16:00 +26°C° 1.4 mm 2 mps 682 mmHg 85%
    17:00 +25°C° 1.4 mm 1 mps 682 mmHg 88%
    18:00 +24°C° 1.4 mm 1 mps 682 mmHg 91%
    19:00 +24°C° 2.3 mm 1 mps 683 mmHg 92%
    20:00 +22°C° 2.3 mm 0 mps 683 mmHg 93%
    21:00 +21°C° 2.3 mm 0 mps 684 mmHg 94%
    22:00 +21°C° 0.9 mm 0 mps 684 mmHg 94%
    23:00 +21°C° 0.9 mm 0 mps 684 mmHg 93%

    Day after tomorrow, 22 May, Wednesday

    Time Temperature Precipitation Wind Pressure Humidity
    00:00 +21°C° 0.9 mm 0 mps 684 mmHg 93%
    01:00 +23°C° 0.5 mm 1 mps 684 mmHg 93%
    02:00 +22°C° 0.5 mm 1 mps 683 mmHg 92%
    03:00 +22°C° 0.5 mm 1 mps 683 mmHg 92%
    04:00 +22°C° 0.1 mm 1 mps 683 mmHg 91%
    05:00 +22°C° 0.1 mm 1 mps 683 mmHg 91%
    06:00 +22°C° 0.1 mm 1 mps 683 mmHg 90%
    07:00 +24°C° 0 mm 1 mps 684 mmHg 84%
    08:00 +26°C° 0 mm 1 mps 685 mmHg 77%
    09:00 +28°C° 0 mm 1 mps 685 mmHg 71%
    10:00 +28°C° 0.2 mm 1 mps 685 mmHg 69%
    11:00 +29°C° 0.2 mm 1 mps 685 mmHg 67%
    12:00 +30°C° 0.2 mm 1 mps 685 mmHg 66%
    13:00 +29°C° 1.1 mm 2 mps 684 mmHg 70%
    14:00 +28°C° 1.1 mm 2 mps 684 mmHg 75%
    15:00 +28°C° 1.1 mm 2 mps 683 mmHg 79%
    16:00 +27°C° 0.7 mm 1 mps 683 mmHg 83%
    17:00 +26°C° 0.7 mm 1 mps 683 mmHg 87%
    18:00 +25°C° 0.7 mm 1 mps 683 mmHg 92%
    19:00 +24°C° 1.2 mm 1 mps 684 mmHg 92%
    20:00 +22°C° 1.2 mm 0 mps 684 mmHg 93%
    21:00 +22°C° 1.2 mm 0 mps 685 mmHg 93%
    22:00 +21°C° 0.9 mm 0 mps 685 mmHg 92%
    23:00 +23°C° 0.9 mm 1 mps 685 mmHg 92%

    23 May, Thursday

    Time Temperature Precipitation Wind Pressure Humidity
    00:00 +23°C° 0.9 mm 1 mps 685 mmHg 91%
    01:00 +23°C° 0 mm 1 mps 685 mmHg 91%
    02:00 +23°C° 0 mm 1 mps 684 mmHg 91%
    03:00 +23°C° 0 mm 1 mps 684 mmHg 91%
    04:00 +23°C° 0 mm 1 mps 684 mmHg 91%
    05:00 +22°C° 0 mm 1 mps 684 mmHg 90%
    06:00 +22°C° 0 mm 1 mps 684 mmHg 90%
    07:00 +24°C° 0 mm 1 mps 685 mmHg 84%
    08:00 +26°C° 0 mm 1 mps 686 mmHg 78%
    09:00 +27°C° 0 mm 1 mps 687 mmHg 72%
    10:00 +26°C° 1.4 mm 1 mps 686 mmHg 78%
    11:00 +25°C° 1.4 mm 1 mps 685 mmHg 84%
    12:00 +24°C° 1.4 mm 1 mps 685 mmHg 89%
    13:00 +25°C° 1.1 mm 1 mps 685 mmHg 88%
    14:00 +25°C° 1.1 mm 1 mps 684 mmHg 88%
    15:00 +26°C° 1.1 mm 1 mps 684 mmHg 87%
    16:00 +25°C° 1.2 mm 1 mps 684 mmHg 89%
    17:00 +25°C° 1.2 mm 1 mps 684 mmHg 91%
    18:00 +22°C° 1.2 mm 0 mps 684 mmHg 93%
    19:00 +24°C° 1.5 mm 1 mps 684 mmHg 93%
    20:00 +24°C° 1.5 mm 1 mps 685 mmHg 93%
    21:00 +23°C° 1.5 mm 1 mps 685 mmHg 93%
    22:00 +23°C° 2.7 mm 1 mps 685 mmHg 93%
    23:00 +23°C° 2.7 mm 1 mps 685 mmHg 93%

    24 May, Friday

    Time Temperature Precipitation Wind Pressure Humidity
    00:00 +23°C° 2.7 mm 1 mps 685 mmHg 93%
    01:00 +23°C° 0.6 mm 1 mps 684 mmHg 93%
    02:00 +23°C° 0.6 mm 1 mps 684 mmHg 93%
    03:00 +23°C° 0.6 mm 1 mps 683 mmHg 92%
    04:00 +23°C° 0.3 mm 1 mps 684 mmHg 92%
    05:00 +23°C° 0.3 mm 1 mps 684 mmHg 92%
    06:00 +23°C° 0.3 mm 1 mps 684 mmHg 92%
    07:00 +23°C° 0.2 mm 1 mps 685 mmHg 89%
    08:00 +24°C° 0.2 mm 1 mps 685 mmHg 86%
    09:00 +25°C° 0.2 mm 1 mps 686 mmHg 83%
    10:00 +27°C° 1.1 mm 1 mps 686 mmHg 79%
    11:00 +28°C° 1.1 mm 1 mps 686 mmHg 76%
    12:00 +29°C° 1.1 mm 1 mps 686 mmHg 72%
    13:00 +28°C° 2.8 mm 1 mps 685 mmHg 76%
    14:00 +28°C° 2.8 mm 1 mps 685 mmHg 81%
    15:00 +27°C° 2.8 mm 1 mps 684 mmHg 85%
    16:00 +26°C° 2.3 mm 1 mps 684 mmHg 87%
    17:00 +25°C° 2.3 mm 1 mps 684 mmHg 89%
    18:00 +24°C° 2.3 mm 1 mps 684 mmHg 91%
    19:00 +24°C° 1.8 mm 1 mps 685 mmHg 91%
    20:00 +24°C° 1.8 mm 1 mps 685 mmHg 92%
    21:00 +23°C° 1.8 mm 1 mps 686 mmHg 92%
    22:00 +23°C° 0.9 mm 1 mps 686 mmHg 92%
    23:00 +23°C° 0.9 mm 1 mps 685 mmHg 92%

    25 May, Saturday

    Time Temperature Precipitation Wind Pressure Humidity
    00:00 +23°C° 0.9 mm 1 mps 685 mmHg 92%
    01:00 +21°C° 0.1 mm 2 mps 685 mmHg 91%
    02:00 +21°C° 0.1 mm 2 mps 684 mmHg 91%
    03:00 +21°C° 0.1 mm 2 mps 684 mmHg 90%
    04:00 +21°C° 0 mm 2 mps 684 mmHg 90%
    05:00 +21°C° 0 mm 2 mps 684 mmHg 90%
    06:00 +21°C° 0 mm 2 mps 685 mmHg 89%
    07:00 +23°C° 0 mm 2 mps 685 mmHg 83%
    08:00 +25°C° 0 mm 2 mps 686 mmHg 76%
    09:00 +27°C° 0 mm 2 mps 687 mmHg 70%
    10:00 +28°C° 0.3 mm 2 mps 686 mmHg 67%
    11:00 +29°C° 0.3 mm 2 mps 686 mmHg 65%
    12:00 +30°C° 0.3 mm 1 mps 686 mmHg 62%
    13:00 +29°C° 1.4 mm 1 mps 686 mmHg 66%
    14:00 +29°C° 1.4 mm 1 mps 685 mmHg 70%
    15:00 +28°C° 1.4 mm 1 mps 684 mmHg 74%
    16:00 +27°C° 0.9 mm 1 mps 684 mmHg 79%
    17:00 +26°C° 0.9 mm 1 mps 684 mmHg 84%
    18:00 +25°C° 0.9 mm 1 mps 685 mmHg 89%
    19:00 +24°C° 0.8 mm 1 mps 685 mmHg 89%
    20:00 +23°C° 0.8 mm 1 mps 685 mmHg 89%
    21:00 +23°C° 0.8 mm 1 mps 686 mmHg 90%
    22:00 +23°C° 0 mm 1 mps 686 mmHg 90%
    23:00 +22°C° 0 mm 1 mps 686 mmHg 90%
    Show more